User: anonymous   Login
Location: Eschertshofen
(49.3064°N, 11.5756°E)
Time: 11:32:30
(UTC+00:00)
Language:

SJ-11-01 - Orbit

View from above orbital plane
View from above orbital plane
View from above satellite
View from above satellite

Ground track
Ground track

The orbit data is extracted from the following two-line orbital elements,

1 36088U 09061A   20330.10866959  .00000079  00000-0  25695-4 0  9990
2 36088  97.9761 357.1933 0010226 295.2016  64.8136 14.60184176588055
Epoch (UTC): 25 November 2020 02:36:29
Eccentricity: 0.0010226
inclination: 97.9761°
perigee height: 685 km
apogee height: 700 km
right ascension of ascending node: 357.1933°
argument of perigee: 295.2016°
revolutions per day: 14.60184176
mean anomaly at epoch: 64.8136°
orbit number at epoch: 58805

The dashed part of the orbit path shows where the satellite is in the earth's shadow,  

DLR